Погода в Соннаме

Южная Корея     37°26′33″N   127°09′07″E
темп.,
°C
ветер,
м/с
пор.,
м/с
влажн.,
%
обл.,
%
осадки,
мм/ч
давл.,
гПа
погр.,
м
12 апреля, пн
пн1200:00+15вюв1144100 0.0 102630
03:00+13юв1249100 0.0 102547
06:00+13юв1251100 0.0 102483
09:00+15юв1242100 0.0 1023400
12:00+13вюв3547100 0.1 1022879
15:00+11вюв41366100 0.8 1016755
18:00+11юв41387100 3.1 1014862
21:00+12юв2789100 5.3 1012419
13 апреля, вт
вт1300:00+11ююв1396100 3.4 1010197
03:00+12юз2797100 5.4 1009703
06:00+11з2695100 0.4 1010760
09:00+13зсз476723 0.6 1012927
12:00+15зсз69515 0.0 10131406
15:00+15з793536 0.0 10121871
18:00+12зсз6831100 0.0 10131501
21:00+9зсз58380 0.0 1016783
14 апреля, ср
ср1400:00+7зсз49413 0.0 1018575
03:00+6зсз24432 0.0 1017347
06:00+5сз12430 0.0 1019150
09:00+10зсз13340 0.0 1020648
12:00+14зсз49160 0.0 10191883
15:00+14з69220 0.0 10181731
18:00+11з58290 0.0 10191043
21:00+8зюз36480 0.0 1020364
15 апреля, чт
чт1500:00+7ююз11620 0.0 1020229
03:00+6ююв12712 0.0 1020186
06:00+5вюв117538 0.0 102186
09:00+10ю225689 0.0 1021636
12:00+15ююз23345 0.0 10191220
15:00+17з452284 0.0 10172066
18:00+14з4525100 0.0 1017729
21:00+11зюз2334100 0.0 1018248
16 апреля, пт
пт1600:00+10юз253757 0.0 1017348
03:00+9юз41050100 0.1 1018668
06:00+9ююз276095 0.1 1017482
09:00+12юз456355 0.1 1018983
12:00+17зюз47431 0.0 10171625
15:00+17зюз57340 0.0 10161698
18:00+15зюз464316 0.0 10151118
21:00+12юз24670 0.0 1017316